CW6407 Weather Reports


Display with metric or nautical units.
time (UTC)temp
F
wind
direction
speed
MPH
gust
MPH
rain 1hr
in
rain 24hr
in
rain mn
in
humidity
%
barometer
mb
20260505152816 68 0 5.0 10.0 0.00 0.00 0.00 66 1004.9
20260505151816 68 0 5.0 9.0 0.00 0.00 0.00 65 1004.9
20260505150817 69 0 7.0 10.0 0.00 0.00 0.00 63 1005.1
20260505124816 76 0.0 1.0 0.00 0.00 0.00 43 1005.7
20260505123816 76 248 4.0 6.0 0.00 0.00 0.00 43 1006.0
20260505122816 76 270 3.0 6.0 0.00 0.00 0.00 44 1006.1
20260505121816 76 135 1.0 2.0 0.00 0.00 0.00 43 1006.1
20260505120816 75 135 2.0 4.0 0.00 0.00 0.00 44 1006.1
20260505115816 75 180 2.0 9.0 0.00 0.00 0.00 44 1006.3
20260505114816 76 248 3.0 6.0 0.00 0.00 0.00 47 1006.3
20260505113816 75 45 4.0 5.0 0.00 0.00 0.00 48 1006.5
20260505112816 75 315 1.0 4.0 0.00 0.00 0.00 49 1006.6
20260505111816 75 338 3.0 6.0 0.00 0.00 0.00 48 1006.6
20260505110816 76 293 3.0 6.0 0.00 0.00 0.00 47 1006.6
20260505101816 74 203 1.0 4.0 0.00 0.00 0.00 51 1007.1
20260505100836 74 203 3.0 5.0 0.00 0.00 0.00 51 1007.1
20260505095816 73 270 2.0 3.0 0.00 0.00 0.00 52 1007.2
20260505094816 73 270 2.0 4.0 0.00 0.00 0.00 53 1007.2
20260505093816 73 270 1.0 3.0 0.00 0.00 0.00 55 1007.6
20260505092816 73 270 1.0 3.0 0.00 0.00 0.00 56 1007.8
20260505091839 72 270 1.0 3.0 0.00 0.00 0.00 57 1007.8
20260505090816 71 225 1.0 2.0 0.00 0.00 0.00 59 1007.9
20260505085816 70 113 1.0 2.0 0.00 0.00 0.00 59 1008.0
20260505084816 70 90 2.0 4.0 0.00 0.00 0.00 60 1008.2
20260505083827 69 315 3.0 4.0 0.00 0.00 0.00 59 1008.1
20260505082815 69 23 1.0 2.0 0.00 0.00 0.00 61 1008.3
20260505081816 68 0.0 1.0 0.00 0.00 0.00 64 1008.4
20260505080816 68 0.0 1.0 0.00 0.00 0.00 63 1008.3
20260505075835 68 293 2.0 4.0 0.00 0.00 0.00 63 1008.3
20260505074816 68 0.0 1.0 0.00 0.00 0.00 63 1008.4
20260505073835 68 270 1.0 2.0 0.00 0.00 0.00 63 1008.5
20260505072816 67 270 4.0 7.0 0.00 0.00 0.00 65 1008.7
20260505071815 66 0.0 1.0 0.00 0.00 0.00 67 1008.7
20260505070815 65 0.0 0.0 0.00 0.00 0.00 66 1008.7
20260505065835 64 0.0 1.0 0.00 0.00 0.00 66 1008.7
20260505064816 64 0.0 0.0 0.00 0.00 0.00 68 1008.8
20260505063816 63 68 3.0 6.0 0.00 0.00 0.00 70 1008.9
20260505062815 62 338 1.0 2.0 0.00 0.00 0.00 73 1008.9
20260505061835 61 338 2.0 3.0 0.00 0.00 0.00 74 1009.0
20260505060815 60 45 1.0 3.0 0.00 0.00 0.00 74 1009.0
20260505055835 60 45 1.0 2.0 0.00 0.00 0.00 74 1009.0
20260505054855 60 45 3.0 4.0 0.00 0.00 0.00 75 1009.1
20260505053815 59 45 3.0 5.0 0.00 0.00 0.00 76 1009.2
20260505052935 59 0.0 1.0 0.00 0.00 0.00 77 1009.3
20260505051815 58 0.0 1.0 0.00 0.00 0.00 80 1009.3
20260505050815 57 0.0 0.0 0.00 0.00 0.00 80 1009.0
20260505040817 57 0.0 0.0 0.00 0.00 0.00 79 1009.0
20260505035837 57 293 1.0 3.0 0.00 0.00 0.00 79 1009.0
20260505034817 57 293 2.0 3.0 0.00 0.00 0.00 78 1009.0
20260505033817 57 293 4.0 7.0 0.00 0.00 0.00 78 1008.9
20260505032817 57 315 2.0 4.0 0.00 0.00 0.00 78 1009.2
20260505031817 57 315 2.0 4.0 0.00 0.00 0.00 77 1009.2
20260505030817 57 338 1.0 2.0 0.00 0.00 0.00 77 1009.3
20260505025837 57 0.0 0.0 0.00 0.00 0.00 77 1009.5
20260505024817 57 338 2.0 3.0 0.00 0.00 0.00 76 1009.3
20260505023817 57 0.0 0.0 0.00 0.00 0.00 76 1009.6
20260505022837 57 338 1.0 2.0 0.00 0.00 0.00 76 1009.7
20260505021837 58 0.0 0.0 0.00 0.00 0.00 76 1009.8
20260505020817 58 0.0 0.0 0.00 0.00 0.00 76 1009.7
20260505015837 58 338 2.0 3.0 0.00 0.00 0.00 75 1009.8
20260505014817 58 315 1.0 3.0 0.00 0.00 0.00 74 1009.8
20260505013817 58 315 1.0 2.0 0.00 0.00 0.00 74 1009.7
20260505012837 58 315 2.0 3.0 0.00 0.00 0.00 73 1009.8
20260505011837 58 315 1.0 3.0 0.00 0.00 0.00 73 1009.8
20260505010817 59 315 1.0 2.0 0.00 0.00 0.00 73 1010.1
20260505005817 59 0.0 1.0 0.00 0.00 0.00 72 1010.2
20260505004816 59 0.0 0.0 0.00 0.00 0.00 72 1010.2
20260505003817 59 0.0 1.0 0.00 0.00 0.00 71 1010.4
20260505002817 59 0.0 0.0 0.00 0.00 0.00 71 1010.4
20260505001816 59 0.0 1.0 0.00 0.00 0.00 71 1010.4
20260505000817 59 248 1.0 2.0 0.00 0.00 0.00 71 1010.4
20260504235817 59 0.0 1.0 0.00 0.00 0.00 72 1010.6
20260504234816 60 0.0 1.0 0.00 0.00 0.00 72 1010.6
20260504233817 60 0.0 0.0 0.00 0.00 0.00 72 1010.6
20260504232816 60 248 2.0 3.0 0.00 0.00 0.00 70 1010.7
20260504231817 60 248 3.0 5.0 0.00 0.00 0.00 71 1010.7
20260504230816 60 0.0 0.0 0.00 0.00 0.00 71 1011.0
20260504225816 60 0.0 0.0 0.00 0.00 0.00 70 1011.2
20260504224816 60 0.0 0.0 0.00 0.00 0.00 70 1011.1
20260504223816 60 0.0 0.0 0.00 0.00 0.00 70 1011.1
20260504222817 61 0.0 1.0 0.00 0.00 0.00 69 1011.2
20260504221816 61 0.0 0.0 0.00 0.00 0.00 68 1011.1
20260504220816 61 0.0 0.0 0.00 0.00 0.00 66 1011.3
20260504215817 61 0.0 0.0 0.00 0.00 0.00 66 1011.3
20260504214817 61 0.0 0.0 0.00 0.00 0.00 66 1011.3
20260504213817 62 0.0 0.0 0.00 0.00 0.00 65 1011.4
20260504212817 62 0.0 0.0 0.00 0.00 0.00 65 1011.4
20260504211815 62 0.0 0.0 0.00 0.00 0.00 65 1011.4
20260504210817 63 0.0 0.0 0.00 0.00 0.00 64 1011.5
20260504205817 63 0.0 0.0 0.00 0.00 0.00 63 1011.5
20260504204817 63 0.0 0.0 0.00 0.00 0.00 63 1011.4
20260504203817 64 0.0 0.0 0.00 0.00 0.00 62 1011.5
20260504202837 64 0.0 0.0 0.00 0.00 0.00 59 1011.4
20260504201817 64 0.0 0.0 0.00 0.00 0.00 58 1011.3
20260504200817 64 248 1.0 3.0 0.00 0.00 0.00 58 1011.4
20260504195817 65 248 2.0 3.0 0.00 0.00 0.00 57 1011.4
20260504194817 65 248 3.0 3.0 0.00 0.00 0.00 56 1011.4
20260504193817 65 0.0 1.0 0.00 0.00 0.00 57 1011.3
20260504192837 66 0.0 0.0 0.00 0.00 0.00 57 1011.3
20260504191817 66 0.0 0.0 0.00 0.00 0.00 56 1011.2
20260504190837 67 0.0 0.0 0.00 0.00 0.00 56 1011.5
20260504185837 67 0.0 0.0 0.00 0.00 0.00 55 1011.4
20260504184816 68 0.0 0.0 0.00 0.00 0.00 51 1011.3
20260504183816 68 248 3.0 4.0 0.00 0.00 0.00 51 1011.2
20260504182816 68 248 2.0 3.0 0.00 0.00 0.00 51 1011.4
20260504181816 69 248 2.0 2.0 0.00 0.00 0.00 50 1011.3
20260504180816 69 0.0 0.0 0.00 0.00 0.00 49 1011.5
20260504175817 69 248 1.0 2.0 0.00 0.00 0.00 47 1011.4
20260504174817 70 248 1.0 2.0 0.00 0.00 0.00 47 1011.4
20260504173819 70 248 3.0 5.0 0.00 0.00 0.00 46 1011.4
20260504172816 71 248 5.0 7.0 0.00 0.00 0.00 45 1011.5
20260504171816 71 225 5.0 6.0 0.00 0.00 0.00 44 1011.5
20260504170836 72 270 4.0 6.0 0.00 0.00 0.00 44 1011.4